Theta_e
308 313 308 305 306 305 305 305 306 309 310 313 317 317 316 317 318 318 319 320 321 321 319 319 320 322 322 321 321 322 323 323 319 321 327 330 334 337 339 345 342 342 342 339 340
309 311 307 305 305 305 305 306 306 308 309 310 315 317 316 315 318 317 316 320 321 320 320 319 319 321 323 321 321 322 322 318 318 320 325 329 332 339 343 345 345 343 342 340 339
308 306 305 305 304 304 304 306 306 307 309 308 310 311 315 314 318 315 313 319 320 319 321 320 320 322 323 323 320 320 322 317 321 323 322 325 330 338 342 345 345 345 345 340 336
307 305 305 304 304 304 304 306 307 306 309 309 308 309 312 314 319 313 312 317 317 319 321 319 320 322 323 323 320 320 318 320 321 322 322 323 326 334 341 339 340 342 342 339 336
304 304 304 304 304 304 304 305 305 307 307 308 308 309 314 315 314 312 312 316 318 319 319 320 319 321 322 322 321 322 317 318 319 321 321 321 323 331 338 339 336 342 341 339 336
301 302 303 303 304 304 304 304 305 307 306 307 307 309 314 316 312 312 313 316 318 318 318 320 320 318 321 320 322 320 320 318 317 319 320 321 323 325 334 337 340 343 342 339 337
303 302 302 303 303 304 304 304 305 308 306 306 307 309 314 314 312 311 313 316 317 318 318 319 320 321 319 321 319 320 321 320 318 318 320 319 323 327 333 337 343 344 342 340 337
304 302 303 303 303 304 304 304 306 308 307 307 308 310 315 312 313 312 314 316 316 317 318 318 318 320 321 320 319 320 321 322 319 316 318 318 322 322 333 338 342 344 342 341 339
303 302 303 305 305 303 303 304 306 307 307 307 310 312 314 312 314 313 313 315 316 316 316 316 317 320 321 322 322 321 322 321 319 316 317 319 320 322 333 337 340 342 341 341 339
303 302 302 304 305 304 303 304 309 307 308 308 309 313 312 313 313 314 314 314 316 316 318 318 318 320 321 322 324 322 322 320 320 317 316 318 319 326 332 335 338 339 340 339 339
306 302 302 304 305 304 303 308 310 312 310 310 312 311 311 312 312 314 314 314 315 316 317 318 319 320 319 319 319 320 321 321 320 317 315 316 318 319 328 332 335 337 337 339 338
307 303 302 303 304 303 305 308 310 310 308 308 310 310 309 311 313 313 314 316 316 317 316 318 320 318 317 317 319 319 320 320 319 316 316 315 316 317 323 331 333 337 335 336 336
306 304 302 303 304 307 308 310 306 308 310 309 309 309 310 310 312 313 313 315 316 317 317 318 318 316 316 318 319 319 320 320 320 316 316 316 315 316 318 323 331 332 335 334 335
306 305 303 303 307 308 308 305 306 306 313 311 307 309 310 311 311 311 312 314 317 317 316 316 315 316 317 317 317 320 318 318 319 319 323 317 319 316 318 323 329 332 332 333 335
305 306 303 303 308 308 307 304 307 307 325 308 308 308 309 310 309 311 311 309 312 316 315 318 316 317 318 317 315 318 314 316 318 321 320 321 323 317 316 318 323 328 331 331 333
305 306 303 308 309 305 303 305 309 319 327 308 308 309 309 309 309 308 309 308 309 312 313 314 313 315 317 316 312 312 313 316 318 321 325 319 321 323 317 315 318 322 328 333 333
305 305 303 304 310 304 305 311 320 323 306 308 309 308 309 309 309 309 310 310 313 318 320 316 316 313 315 318 312 313 317 324 326 326 323 315 321 322 318 317 318 319 325 332 334
305 305 306 304 306 305 309 314 323 314 311 306 307 307 308 309 308 309 310 311 310 311 315 320 322 314 316 317 317 316 319 326 323 324 320 314 320 320 318 319 317 319 323 330 333
305 307 307 306 304 306 313 322 317 312 308 308 308 309 310 309 309 309 310 311 310 309 314 314 314 312 314 317 314 317 317 316 316 314 318 319 317 316 316 316 316 316 320 325 329
306 307 307 305 305 308 313 316 312 307 307 308 311 309 309 310 309 309 310 310 309 309 310 312 314 310 311 312 314 314 312 318 319 322 320 317 317 323 319 316 316 316 316 317 322
306 308 306 303 305 310 317 314 312 308 307 309 309 309 308 309 309 310 309 309 309 308 308 310 310 312 310 316 319 315 316 314 314 318 318 317 319 318 321 319 317 317 317 316 316
307 310 305 304 310 312 315 311 306 307 307 309 307 308 308 309 309 309 310 309 308 308 308 308 310 313 313 312 312 314 317 318 320 319 316 315 320 313 312 314 313 313 312 312 312
309 310 304 306 313 314 310 309 307 308 308 309 309 308 308 308 309 309 310 308 307 308 309 308 309 313 311 308 307 313 314 313 317 316 318 321 321 311 311 311 312 312 313 312 311
307 311 307 306 308 309 310 309 308 307 308 308 308 307 307 308 308 309 309 309 307 308 306 307 309 311 315 311 311 310 312 315 313 317 317 320 319 316 315 314 313 311 312 311 311
307 308 308 311 308 308 307 308 309 308 306 306 307 307 308 308 309 308 309 309 308 309 308 308 310 309 309 309 308 308 309 311 313 314 317 317 315 315 314 313 311 310 310 310 310
308 306 305 305 306 308 308 308 309 308 307 306 307 308 307 308 308 308 308 308 309 309 309 308 309 307 307 307 307 307 307 308 309 311 313 314 315 314 314 311 311 310 308 308 308
306 306 303 307 306 305 307 307 307 308 307 307 307 307 308 308 308 307 306 306 308 309 310 309 308 308 308 304 304 306 306 307 308 308 309 310 311 310 310 309 309 308 308 307 308
Wind_Speed
8 10 9 8 8 9 11 13 12 12 12 11 11 8 6 5 6 5 6 11 10 12 7 8 8 6 9 10 6 6 8 14 23 21 18 15 14 3 2 13 7 6 3 21 31
9 10 8 7 8 9 11 12 10 9 11 10 7 5 6 8 8 4 10 13 12 11 6 8 10 6 6 9 8 9 10 15 14 14 16 11 14 10 6 11 11 9 13 30 33
9 8 7 7 7 9 10 11 10 7 6 9 9 9 8 10 10 4 15 14 12 6 5 5 5 7 8 6 10 10 13 11 3 10 10 11 10 10 9 16 13 18 22 25 30
9 7 8 7 7 8 9 10 10 7 6 8 11 10 7 7 5 8 15 13 7 5 4 4 6 6 4 7 9 7 9 12 1 4 9 9 10 14 13 9 7 16 22 25 26
9 7 7 8 9 10 10 10 12 9 7 8 9 9 4 6 5 11 13 12 5 3 3 4 7 7 6 2 5 8 10 8 11 8 10 11 12 13 14 3 10 19 21 24 22
10 9 9 9 10 11 11 12 13 9 7 6 8 8 10 4 7 10 11 9 6 3 1 2 5 6 5 4 5 7 6 11 11 13 11 12 11 7 12 6 7 14 20 21 20
12 11 11 11 11 13 13 13 14 8 6 5 7 6 5 7 4 7 9 7 7 5 3 2 4 6 2 3 2 6 10 11 14 16 12 9 13 12 5 8 17 18 18 20 16
15 11 11 12 12 13 13 13 12 7 5 5 5 5 3 2 4 4 4 5 5 3 2 3 5 4 1 0 2 7 12 11 13 18 15 4 17 17 8 10 16 21 16 14 19
19 13 11 12 13 14 13 13 10 7 6 4 4 5 1 1 2 4 3 3 6 3 0 1 3 2 3 2 3 5 9 10 8 13 15 15 13 11 8 9 11 15 15 14 13
23 15 11 12 14 14 12 11 8 6 4 4 5 5 3 2 1 2 2 1 2 4 3 4 3 5 3 4 2 8 9 9 9 10 18 19 16 5 6 8 11 11 13 12 13
28 19 12 14 14 13 7 4 5 5 6 7 5 3 2 0 2 2 1 3 3 6 7 1 6 6 1 9 9 8 7 10 15 2 11 23 20 19 8 7 11 12 12 13 14
28 22 15 14 13 8 3 4 3 3 8 7 6 5 3 2 4 3 1 2 2 5 4 6 9 1 2 5 7 8 9 12 10 4 7 17 24 20 10 9 13 12 14 12 11
29 26 16 13 9 4 3 1 1 3 5 3 5 5 2 5 3 2 3 1 2 2 4 9 3 4 7 8 9 10 11 11 7 4 10 11 20 23 19 11 11 12 13 12 14
27 28 16 13 3 4 1 2 2 2 4 5 5 3 5 3 4 2 2 4 4 3 2 5 4 7 8 9 7 9 6 11 10 6 7 11 9 21 23 15 14 15 15 16 18
25 26 15 9 6 4 2 1 1 3 4 4 4 3 2 5 2 6 3 3 6 2 3 0 3 6 9 9 6 7 5 8 10 9 9 12 7 19 22 24 19 17 18 20 21
27 27 12 4 4 3 2 1 2 1 6 4 4 4 5 7 4 4 4 4 2 4 6 7 1 3 6 3 7 5 7 5 3 4 6 14 11 10 17 25 24 19 18 19 21
28 28 11 5 1 2 1 4 2 4 2 4 4 4 6 5 6 7 7 7 5 3 5 4 9 4 5 7 5 8 7 3 4 5 7 2 4 14 11 17 20 22 18 18 20
32 21 7 7 4 5 3 3 6 3 5 2 2 3 6 5 6 7 5 9 14 9 3 4 3 10 11 6 4 10 7 3 6 5 8 6 8 11 11 15 5 13 17 18 19
28 9 5 5 7 5 4 3 5 2 2 6 4 4 5 6 4 6 9 10 5 15 8 3 3 4 5 5 3 6 7 2 6 3 4 8 13 18 9 9 10 12 8 12 19
20 8 8 6 8 6 5 6 5 1 1 3 7 9 5 7 6 6 6 4 5 10 6 1 4 5 5 4 9 7 4 4 4 4 6 8 11 6 7 15 15 13 13 15 13
10 5 4 8 6 5 5 8 5 5 6 6 7 6 9 5 10 5 6 4 8 10 8 4 5 4 3 10 12 7 5 7 3 7 5 6 4 2 6 13 12 12 12 10 10
7 5 4 12 5 5 9 6 0 6 6 6 6 11 10 7 7 8 7 6 8 10 7 8 4 7 12 3 5 11 16 16 7 7 6 6 8 5 3 4 2 3 2 3 6
4 8 5 7 7 11 10 7 6 8 8 8 7 10 6 5 6 12 5 2 10 11 7 7 6 3 3 4 5 8 13 13 15 6 11 7 5 4 3 1 1 2 4 3 3
3 5 5 7 11 10 15 14 10 7 8 8 5 7 8 9 12 5 7 5 9 9 2 4 6 9 6 3 2 5 13 18 15 8 13 17 15 18 13 8 5 6 8 8 4
4 8 9 8 10 18 15 9 12 9 8 10 6 15 10 7 11 12 13 6 8 8 6 6 8 13 17 17 13 14 13 16 19 23 14 19 17 18 16 11 7 6 9 9 5
7 3 6 12 8 13 17 13 20 17 10 7 12 13 16 13 15 10 8 11 9 13 12 7 5 4 6 14 14 17 18 20 20 22 24 23 26 22 19 15 12 10 9 10 9
19 17 5 11 16 14 17 19 18 14 11 16 12 14 16 19 17 15 7 5 7 10 15 8 6 4 6 2 7 11 21 24 22 21 21 19 23 17 13 9 8 8 6 7 7
Wind_Direction
336 341 340 340 356 356 1 357 355 353 4 7 23 42 51 25 3 344 20 330 318 320 295 268 242 247 249 211 245 240 233 229 225 236 224 203 195 222 254 140 164 173 182 139 157
333 334 332 337 347 350 2 353 350 348 7 6 6 4 356 342 305 340 345 336 332 323 293 255 228 223 223 206 197 221 228 229 230 220 263 246 208 187 188 171 172 152 111 141 155
330 326 324 329 338 345 358 351 353 336 358 13 1 326 305 326 282 30 341 339 328 322 292 269 258 240 233 270 212 214 243 245 296 7 338 302 254 173 225 197 188 176 146 157 158
331 322 319 321 325 335 348 342 346 330 322 344 348 340 317 300 322 353 339 340 339 324 303 255 234 235 230 235 211 251 229 268 330 347 333 312 312 220 224 210 255 165 158 161 167
334 320 313 312 314 322 334 335 331 330 307 324 340 347 341 288 1 336 337 333 322 308 316 288 252 241 255 260 281 232 259 242 254 272 296 304 270 253 220 61 333 142 164 171 171
337 322 312 306 307 314 322 327 330 320 303 317 333 350 335 25 337 333 335 333 339 301 248 303 317 304 301 279 280 323 283 250 247 249 277 289 287 226 233 135 164 153 175 175 174
335 324 312 304 304 308 313 319 322 308 296 303 325 331 293 8 342 331 327 320 336 333 297 344 327 246 280 265 292 298 279 228 233 240 241 312 267 227 206 180 169 164 188 176 171
338 320 314 309 306 303 303 310 316 292 282 286 318 301 328 338 340 356 345 318 332 341 346 346 332 275 279 134 269 254 248 260 227 220 223 244 250 219 166 194 192 182 173 180 177
352 329 317 317 314 307 300 304 305 285 273 280 289 294 1 303 327 2 16 339 318 292 235 262 279 314 186 202 356 261 268 251 229 206 213 214 243 230 170 199 205 193 185 169 183
360 345 326 325 320 312 301 300 288 269 282 265 260 253 182 358 335 342 338 344 295 275 236 224 232 238 189 216 236 260 255 275 265 197 227 223 233 173 191 223 207 211 194 178 179
359 351 331 329 324 314 309 293 232 206 221 273 318 288 281 102 266 195 285 287 239 248 259 211 251 233 170 215 275 287 259 262 269 194 234 223 229 237 186 210 232 207 202 189 192
357 350 334 331 333 336 323 263 31 351 292 216 247 266 243 254 266 208 224 267 269 240 241 247 247 52 259 248 243 257 273 263 259 260 249 239 227 234 210 225 229 205 202 199 185
352 351 337 332 331 356 351 10 325 333 263 179 213 255 230 210 268 188 243 236 287 263 264 272 31 316 244 220 227 231 243 266 255 294 251 264 237 229 233 227 210 228 207 200 188
350 351 342 335 340 336 352 314 348 320 275 176 194 176 167 233 237 143 212 299 216 304 301 290 341 286 253 241 235 254 250 253 273 289 249 214 237 226 229 211 215 209 210 202 203
347 349 341 341 313 309 302 333 357 267 299 134 156 111 160 230 25 173 174 206 277 237 219 161 283 272 249 242 226 239 318 263 241 260 286 248 245 250 219 225 215 215 210 210 205
341 342 333 339 295 278 249 171 272 270 255 177 160 201 208 208 203 137 199 213 316 263 229 275 117 250 290 283 245 310 264 203 211 244 246 240 225 250 237 219 219 220 208 203 204
339 334 309 286 281 245 166 243 324 224 91 179 233 202 232 221 219 206 206 207 213 216 228 204 221 194 227 255 212 224 235 177 207 207 241 87 217 244 247 222 232 225 204 203 198
336 327 287 242 242 176 188 259 242 236 192 133 162 216 238 183 232 214 244 249 222 236 277 237 232 201 184 238 249 212 224 259 242 214 234 170 242 236 246 246 248 274 211 198 202
339 324 271 233 205 192 228 201 259 259 146 173 173 210 216 216 242 219 230 244 246 201 204 215 231 157 205 197 236 206 228 306 301 235 269 220 241 257 247 236 224 229 232 220 201
329 304 251 229 182 213 225 240 248 237 182 227 211 197 227 180 207 207 225 203 206 200 223 19 263 204 145 206 226 247 349 209 214 260 251 253 246 250 254 224 221 217 209 222 223
307 286 161 172 164 216 232 239 245 194 202 231 255 233 232 210 218 220 268 168 204 178 204 254 220 141 209 212 201 194 225 219 272 245 272 287 285 163 256 252 236 210 206 203 204
299 261 160 155 202 225 236 228 331 209 190 240 282 265 248 192 220 218 232 235 182 168 188 212 259 231 234 202 262 265 229 225 229 216 238 283 264 295 287 309 235 295 267 220 227
267 276 180 188 230 225 245 253 239 204 201 188 221 231 246 238 235 220 210 143 186 193 194 178 226 236 200 213 211 230 224 243 235 255 249 244 254 106 123 76 3 185 219 263 235
268 266 185 209 252 257 244 249 235 216 232 209 237 206 207 231 233 260 221 179 193 217 84 184 247 241 255 25 6 209 222 219 223 238 238 241 261 265 267 272 238 263 281 294 266
216 236 266 223 230 228 234 248 234 225 222 211 213 224 207 237 232 231 237 192 193 186 202 225 248 244 259 270 257 260 258 228 224 235 243 253 251 261 253 268 302 290 277 274 262
234 225 209 266 263 225 217 229 227 228 196 209 232 241 226 232 232 269 235 211 214 183 193 212 254 274 261 254 255 251 249 249 236 238 245 258 269 266 274 279 275 264 248 257 272
221 236 263 236 233 232 225 226 234 235 229 239 241 245 248 238 254 281 284 286 252 185 194 188 225 228 262 144 264 260 239 231 237 232 234 242 244 270 275 252 269 273 257 251 264